Regional Weather Roundup
Issued by NWS Boston, MA

Home | Current Version | Previous Version | Text Only | Print | Product List | Glossary On
Versions: 1 2 3 4 5 6 7 8 9 10 11 12 13 14 15 16 17 18 19 20 21 22 23 24 25 26 27 28 29 30 31 32 33 34 35 36 37 38 39 40 41 42 43 44 45 46 47 48 49 50
000
ASUS41 KBOX 121410
RWRBOX

REGIONAL WEATHER ROUNDUP
NATIONAL WEATHER SERVICE TAUNTON MA
900 AM EST FRI FEB 12 2016

NOTE:  "FAIR" INDICATES FEW OR NO CLOUDS BELOW 12,000 FEET WITH NO
SIGNIFICANT WEATHER AND/OR OBSTRUCTIONS TO VISIBILITY.  THE FOLLOWING
OBSERVATION LOCATIONS DO NOT REPORT PRESENT WEATHER...PROVINCETOWN...
SMITHFIELD...BLOCK ISLAND...KEENE...AND OXFORD.

MAZALL-121500-
EASTERN MASSACHUSETTS

CITY           SKY/WX    TMP DP  RH WIND       PRES   REMARKS
BOSTON         MOSUNNY   12  -5  46 W14       30.20S WCI  -3
BEVERLY        SUNNY      8  -8  48 W10       30.18F WCI  -6
LAWRENCE       SUNNY      8  -6  52 W10       30.19F WCI  -6
BEDFORD        SUNNY      7  -8  50 SW6       30.18F WCI  -3
BLUE HILL        N/A      7  -5  57 W13G21    30.13F WCI  -9
NORWOOD        SUNNY     10  -5  50 W6        30.21F WCI   0
MARSHFIELD     SUNNY     14  -4  44 W8        30.22S WCI   3
PLYMOUTH       SUNNY     10  -4  53 W13       30.20F WCI  -5
TAUNTON        SUNNY     13  -3  49 W8        30.21S WCI   2
NEW BEDFORD    SUNNY     12  -2  53 W12       30.22R WCI  -2
$$

MAZALL-121500-
CAPE COD AND THE ISLANDS

CITY           SKY/WX    TMP DP  RH WIND       PRES   REMARKS
FALMOUTH       SUNNY     12  -4  48 W12       30.21S WCI  -2
HYANNIS        SUNNY     13  -5  44 W12G18    30.20R WCI  -1
CHATHAM        SUNNY     13  -1  54 W8G21     30.21R WCI   2
PROVINCETOWN   MOSUNNY   14   5  67 NW14G23   30.20S WCI  -1
NANTUCKET      SUNNY     17   3  54 W16G23    30.22S WCI   2
MARTHAS VNYRD  SUNNY     15   0  51 W15G22    30.23S WCI   0
$$

MAZALL-121500-
CENTRAL AND WESTERN MASSACHUSETTS

CITY           SKY/WX    TMP DP  RH WIND       PRES   REMARKS
WORCESTER      SUNNY      6  -4  63 W15       30.09F WCI -12
FITCHBURG      SUNNY     10  -6  48 NW8       30.16F WCI  -2
ORANGE         SUNNY      1  -6  72 CALM      30.15F
SPRINGFIELD    SUNNY      8  -2  64 S8        30.18F WCI  -5
WESTFIELD      SUNNY     10  -1  61 S6        30.19S WCI   0
NORTH ADAMS    SUNNY      8  -1  66 CALM      30.14F
PITTSFIELD     SUNNY      6  -1  73 SW8       30.08S WCI  -7
$$

RIZALL-121500-
RHODE ISLAND

CITY           SKY/WX    TMP DP  RH WIND       PRES   REMARKS
PROVIDENCE     MOSUNNY   13  -2  51 W5        30.23S WCI   5
NEWPORT        SUNNY     14   1  56 W5        30.23R WCI   6
BLOCK ISLAND   SUNNY     21   7  53 W13       30.21F WCI   9
SMITHFIELD     SUNNY     10  -2  56 W8        30.15F WCI  -1
WESTERLY       SUNNY     16   3  56 W8        30.25R WCI   5
$$

CTZALL-121500-
CONNECTICUT

CITY           SKY/WX    TMP DP  RH WIND       PRES   REMARKS
BRADLEY INTL   MOSUNNY   10   0  63 SW7       30.20S WCI  -1
HARTFORD       SUNNY     14   1  56 SW5       30.24S WCI   6
BRIDGEPORT     SUNNY     18   2  49 W9        30.25S WCI   7
DANBURY        SUNNY     14  -1  51 SW12      30.21S WCI   0
GROTON         SUNNY     16   4  59 W7        30.25R WCI   6
NEW HAVEN      SUNNY     16   3  56 W6        30.24S WCI   7
CHESTER        FAIR      14   3  62 SW7       30.21R WCI   4
MERIDEN        SUNNY     14   2  58 S6        30.23S WCI   5
WILLIMANTIC    SUNNY     12   0  58 CALM      30.21F
OXFORD         MOSUNNY   12  -4  48 W6        30.18R WCI   3
$$

MEZ002-015-021-024-NHZ003-005-008-011-012-014-VTZ005-008-121500-
NORTHERN NEW ENGLAND

CITY           SKY/WX    TMP DP  RH WIND       PRES   REMARKS
PORTLAND ME    MOSUNNY    5  -9  52 W10       30.14R WCI -10
BANGOR ME      SUNNY      2 -11  54 W8        30.06S WCI -12
CONCORD NH     SUNNY      7  -9  48 W5        30.15S WCI  -2
MANCHESTER NH  SUNNY      8  -7  50 W6        30.15F WCI  -2
NASHUA NH      SUNNY     10  -4  52 CALM      30.18F
PORTSMOUTH NH  MOSUNNY    7  -8  52 W12       30.16R WCI  -9
JAFFREY NH     SUNNY      6  -7  54 W9        30.07F WCI  -8
KEENE NH       MOSUNNY    1  -8  66 CALM      30.15S
BURLINGTON VT  FAIR       5  -7  57 S14       30.11F WCI -12
MT. WASHINGTON MOSUNNY  -18 -24  76 W62G72      N/A  WCI -60
$$

NYZ052-076-121500-
EASTERN NEW YORK

CITY           SKY/WX    TMP DP  RH WIND       PRES   REMARKS
ALBANY         MOSUNNY   11   0  61 S8        30.18F WCI  -1
NEW YORK CITY  MOSUNNY   19   0  43 W8        30.27S WCI   9
$$

ANZALL-121500-
MARINE OBSERVATIONS

STATION/POSITION TIME  TEMP    WIND        PRES    VSBY  WAVE
                       AIR SEA DIR/SP/G                  HT/PER
                 (UTC) (F)     (DEG/KT/KT) (MB)    (MI)  (FT/S)
BOSTON BUOY      1350   14 40  290/ 17/ 23 1022.6S         3/ 4
BUZZARDS BAY     1400          290/ 21/ 26 1024.1R
NANTUCKET SOUND  1350   17 38  300/ 17/ 21 1023.3F         2/ 3
MASS BAY-STELLWA 1304   12 41  280/ 21/ 25   N/A    1 5/8  3/ 4
ISLE OF SHOALS   1400    7     280/ 20/ 24 1020.7R
S OF BLOCK IS    NOT AVBL
$$

......................KEY.........................
  SKY/WX - SKY CONDITION/PRESENT WEATHER
  TMP    - TEMPERATURE IN FAHRENHEIT
  DWPT   - DEWPOINT IN FAHRENHEIT
  RH     - RELATIVE HUMIDITY IN PERCENT
  WIND   - DIRECTION AND SPEED IN MPH
  PRES   - MEAN SEA LEVEL PRESSURE IN INCHES OF HG
  WCI    - WIND CHILL INDEX
  VSB    - VISIBILITY IN MILES
  HX     - HEAT INDEX
  TC     - TEMPERATURE IN CELSIUS
  VRB    - VARIABLE WIND DIRECTION
  N/A    - NOT AVAILABLE



USA.gov is the U.S. government's official web portal to all federal, state and local government web resources and services.